Change the Weather History Date:

Saturday, March 30, 2013

  Actual Average Record
Temperature  
Mean Temperature 48 °F 40 °F  
Max Temperature 64 °F 52 °F 86 °F (1978)
Min Temperature 32 °F 28 °F 4 °F (1975)
Degree Days  
Heating Degree Days 17 25  
Month to date heating degree days 1069 922  
Since 1 July heating degree days 6493 6420  
Cooling Degree Days 0 0  
Month to date cooling degree days 0 0  
Year to date cooling degree days 0 0  
Moisture  
Dew Point 30 °F    
Average Humidity 56    
Maximum Humidity 92    
Minimum Humidity 20    
Precipitation  
Precipitation T in 0.05 in 0.77 in (2007)
Month to date precipitation 0.15 1.17  
Year to date precipitation 1.81 2.18  
Snow  
Snow 0.00 in 0.20 in 3.10 in (2009)
Month to date snowfall 3.0 5.8  
Since 1 July snowfall 34.7 27.6  
Snow Depth 0.00 in    
Sea Level Pressure  
Sea Level Pressure 29.99 in    
Wind  
Wind Speed 11 mph (NW)    
Max Wind Speed 29 mph    
Max Gust Speed 37 mph    
Visibility 9 miles    
Events      
T = Trace of Precipitation, MM = Missing Value Source: NWS Daily Summary

Daily Weather History Graph

Daily Weather History Graph

Search for Another Location

Airport or City:

Trip Planner

Search our weather history database for the weather conditions in past years. The results will help you decide how hot, cold, wet, or windy it might be!

Date:

Astronomy

Mar. 30, 2013 Rise Set
Actual Time 7:25 AM CDT 8:06 PM CDT
Civil Twilight 6:56 AM CDT 8:35 PM CDT
Nautical Twilight 6:21 AM CDT 9:10 PM CDT
Astronomical Twilight 5:45 AM CDT 9:46 PM CDT
Moon No Moon Rise 9:13 AM CDT (3/30)
Length of Visible Light 13h 39m
Length of Day
12h 41m
Waning Gibbous, 86% of the Moon is Illuminated
Mar 30
Waning Gibbous
Apr 2
Last Quarter
Apr 10
New
Apr 18
First Quarter
Apr 25
Full

Hourly Weather History & Observations

Time (CDT) Temp. Windchill Dew Point Humidity Pressure Visibility Wind Dir Wind Speed Gust Speed Precip Events Conditions
12:53 AM 37.0 °F 28.5 °F 32.0 °F 82% 29.96 in 8.0 mi North 13.8 mph - N/A   Clear
1:53 AM 34.0 °F 27.2 °F 30.0 °F 85% 29.99 in 7.0 mi NW 8.1 mph - N/A   Partly Cloudy
2:53 AM 35.1 °F 29.3 °F 30.9 °F 85% 29.98 in 7.0 mi West 6.9 mph - N/A   Clear
3:53 AM 35.1 °F 29.3 °F 30.9 °F 85% 29.99 in 7.0 mi West 6.9 mph - N/A   Clear
4:53 AM 34.0 °F 28.8 °F 30.9 °F 89% 30.00 in 6.0 mi WSW 5.8 mph - N/A   Partly Cloudy
5:53 AM 34.0 °F 28.0 °F 30.9 °F 89% 30.01 in 6.0 mi West 6.9 mph - N/A   Partly Cloudy
6:53 AM 35.1 °F 28.6 °F 32.0 °F 89% 30.01 in 6.0 mi West 8.1 mph - N/A   Scattered Clouds
7:53 AM 36.0 °F 30.3 °F 33.1 °F 89% 30.03 in 5.0 mi WSW 6.9 mph - N/A   Clear
8:53 AM 39.0 °F 35.7 °F 35.1 °F 86% 30.03 in 6.0 mi WNW 4.6 mph - N/A   Clear
9:53 AM 46.9 °F - 36.0 °F 66% 30.02 in 10.0 mi WNW 9.2 mph - N/A   Clear
10:53 AM 54.0 °F - 36.0 °F 51% 30.01 in 10.0 mi NW 9.2 mph - N/A   Clear
11:53 AM 57.0 °F - 36.0 °F 45% 30.01 in 10.0 mi NW 16.1 mph - N/A   Clear
12:53 PM 59.0 °F - 36.0 °F 42% 30.00 in 10.0 mi NW 16.1 mph 24.2 mph N/A   Clear
1:53 PM 61.0 °F - 30.0 °F 31% 29.99 in 10.0 mi NW 19.6 mph - N/A   Clear
2:53 PM 62.1 °F - 23.0 °F 22% 29.97 in 10.0 mi NW 21.9 mph 27.6 mph N/A   Clear
3:53 PM 63.0 °F - 21.9 °F 21% 29.96 in 10.0 mi NNW 21.9 mph 29.9 mph N/A   Partly Cloudy
4:53 PM 60.1 °F - 23.0 °F 24% 29.96 in 10.0 mi North 13.8 mph 36.8 mph N/A   Mostly Cloudy
5:53 PM 61.0 °F - 25.0 °F 25% 29.95 in 10.0 mi North 16.1 mph - N/A   Scattered Clouds
6:53 PM 57.9 °F - 26.1 °F 30% 29.96 in 10.0 mi NNE 10.4 mph - N/A   Clear
7:53 PM 52.0 °F - 26.1 °F 37% 29.97 in 10.0 mi North 6.9 mph - N/A   Clear
8:53 PM 46.0 °F 44.8 °F 26.1 °F 46% 29.97 in 10.0 mi North 3.5 mph - N/A   Mostly Cloudy
9:53 PM 51.1 °F - 27.0 °F 39% 29.99 in 10.0 mi NNW 10.4 mph - 0.00 in   Overcast
10:53 PM 48.0 °F - 30.0 °F 50% 30.02 in 10.0 mi NNW 20.7 mph 26.5 mph N/A   Overcast
11:53 PM 39.0 °F 30.6 °F 30.0 °F 70% 30.06 in 10.0 mi NNW 15.0 mph - N/A   Clear